Year,Month,Day,Hour,Minute,Value (Times are PST for temperature in C)
2007,08,05,00,00,16.00
2007,08,05,00,01,16.00
2007,08,05,00,02,16.00
2007,08,05,00,03,16.00
2007,08,05,00,04,16.00
2007,08,05,00,05,16.00
2007,08,05,00,06,16.00
2007,08,05,00,07,16.00
2007,08,05,00,08,16.00
2007,08,05,00,09,16.00
2007,08,05,00,10,16.00
2007,08,05,00,11,15.90
2007,08,05,00,12,15.90
2007,08,05,00,13,15.90
2007,08,05,00,14,15.90
2007,08,05,00,15,15.90
2007,08,05,00,16,15.90
2007,08,05,00,17,15.90
2007,08,05,00,18,15.80
2007,08,05,00,19,15.80
2007,08,05,00,20,15.80
2007,08,05,00,21,15.80
2007,08,05,00,22,15.80
2007,08,05,00,23,15.70
2007,08,05,00,24,15.70
2007,08,05,00,25,15.70
2007,08,05,00,26,15.70
2007,08,05,00,27,15.70
2007,08,05,00,28,15.70
2007,08,05,00,29,15.70
2007,08,05,00,30,15.70
2007,08,05,00,31,15.70
2007,08,05,00,32,15.70
2007,08,05,00,33,15.70
2007,08,05,00,34,15.70
2007,08,05,00,35,15.70
2007,08,05,00,36,15.70
2007,08,05,00,37,15.70
2007,08,05,00,38,15.70
2007,08,05,00,39,15.70
2007,08,05,00,40,15.70
2007,08,05,00,41,15.70
2007,08,05,00,42,15.70
2007,08,05,00,43,15.70
2007,08,05,00,44,15.70
2007,08,05,00,45,15.70
2007,08,05,00,46,15.70
2007,08,05,00,47,15.60
2007,08,05,00,48,15.60
2007,08,05,00,49,15.50
2007,08,05,00,50,15.40
2007,08,05,00,51,15.30
2007,08,05,00,52,15.30
2007,08,05,00,53,15.20
2007,08,05,00,54,15.20
2007,08,05,00,55,15.10
2007,08,05,00,56,15.00
2007,08,05,00,57,15.00
2007,08,05,00,58,15.00
2007,08,05,00,59,15.00
2007,08,05,01,00,15.00
2007,08,05,01,01,15.00
2007,08,05,01,02,15.00
2007,08,05,01,03,15.00
2007,08,05,01,04,15.00
2007,08,05,01,05,15.00
2007,08,05,01,06,15.00
2007,08,05,01,07,15.00
2007,08,05,01,08,15.00
2007,08,05,01,09,15.00
2007,08,05,01,10,15.00
2007,08,05,01,11,15.00
2007,08,05,01,12,15.00
2007,08,05,01,13,15.00
2007,08,05,01,14,15.00
2007,08,05,01,15,15.00
2007,08,05,01,16,15.00
2007,08,05,01,17,15.00
2007,08,05,01,18,15.00
2007,08,05,01,19,15.00
2007,08,05,01,20,15.00
2007,08,05,01,21,15.00
2007,08,05,01,22,15.00
2007,08,05,01,23,15.00
2007,08,05,01,24,15.00
2007,08,05,01,25,15.00
2007,08,05,01,26,15.00
2007,08,05,01,27,15.00
2007,08,05,01,28,15.00
2007,08,05,01,29,15.00
2007,08,05,01,30,15.00
2007,08,05,01,31,15.00
2007,08,05,01,32,15.00
2007,08,05,01,33,15.00
2007,08,05,01,34,15.00
2007,08,05,01,35,15.00
2007,08,05,01,36,15.00
2007,08,05,01,37,15.00
2007,08,05,01,38,15.00
2007,08,05,01,39,15.00
2007,08,05,01,40,15.00
2007,08,05,01,41,15.00
2007,08,05,01,42,14.90
2007,08,05,01,43,14.90
2007,08,05,01,44,14.90
2007,08,05,01,45,14.80
2007,08,05,01,46,14.80
2007,08,05,01,47,14.80
2007,08,05,01,48,14.80
2007,08,05,01,49,14.80
2007,08,05,01,50,14.80
2007,08,05,01,51,14.80
2007,08,05,01,52,14.70
2007,08,05,01,53,14.80
2007,08,05,01,54,14.80
2007,08,05,01,55,14.80
2007,08,05,01,56,14.80
2007,08,05,01,57,14.70
2007,08,05,01,58,14.70
2007,08,05,01,59,14.70
2007,08,05,02,00,14.70
2007,08,05,02,01,14.70
2007,08,05,02,02,14.60
2007,08,05,02,03,14.60
2007,08,05,02,04,14.60
2007,08,05,02,05,14.60
2007,08,05,02,06,14.60
2007,08,05,02,07,14.60
2007,08,05,02,08,14.60
2007,08,05,02,09,14.60
2007,08,05,02,10,14.60
2007,08,05,02,11,14.60
2007,08,05,02,12,14.60
2007,08,05,02,13,14.60
2007,08,05,02,14,14.60
2007,08,05,02,15,14.60
2007,08,05,02,16,14.50
2007,08,05,02,17,14.50
2007,08,05,02,18,14.50
2007,08,05,02,19,14.40
2007,08,05,02,20,14.40
2007,08,05,02,21,14.40
2007,08,05,02,22,14.30
2007,08,05,02,23,14.30
2007,08,05,02,24,14.30
2007,08,05,02,25,14.30
2007,08,05,02,26,14.30
2007,08,05,02,27,14.30
2007,08,05,02,28,14.30
2007,08,05,02,29,14.20
2007,08,05,02,30,14.20
2007,08,05,02,31,14.20
2007,08,05,02,32,14.20
2007,08,05,02,33,14.20
2007,08,05,02,34,14.20
2007,08,05,02,35,14.20
2007,08,05,02,36,14.20
2007,08,05,02,37,14.20
2007,08,05,02,38,14.20
2007,08,05,02,39,14.30
2007,08,05,02,40,14.30
2007,08,05,02,41,14.30
2007,08,05,02,42,14.30
2007,08,05,02,43,14.30
2007,08,05,02,44,14.20
2007,08,05,02,45,14.20
2007,08,05,02,46,14.20
2007,08,05,02,47,14.20
2007,08,05,02,48,14.30
2007,08,05,02,49,14.30
2007,08,05,02,50,14.30
2007,08,05,02,51,14.30
2007,08,05,02,52,14.30
2007,08,05,02,53,14.30
2007,08,05,02,54,14.30
2007,08,05,02,55,14.30
2007,08,05,02,56,14.30
2007,08,05,02,57,14.30
2007,08,05,02,58,14.20
2007,08,05,02,59,14.20
2007,08,05,03,00,14.20
2007,08,05,03,01,14.20
2007,08,05,03,02,14.20
2007,08,05,03,03,14.20
2007,08,05,03,04,14.10
2007,08,05,03,05,14.10
2007,08,05,03,06,14.10
2007,08,05,03,07,14.00
2007,08,05,03,08,14.00
2007,08,05,03,09,14.00
2007,08,05,03,10,13.90
2007,08,05,03,11,13.90
2007,08,05,03,12,13.90
2007,08,05,03,13,13.90
2007,08,05,03,14,13.90
2007,08,05,03,15,13.90
2007,08,05,03,16,13.90
2007,08,05,03,17,13.90
2007,08,05,03,18,13.90
2007,08,05,03,19,13.90
2007,08,05,03,20,13.90
2007,08,05,03,21,13.90
2007,08,05,03,22,13.90
2007,08,05,03,23,13.90
2007,08,05,03,24,13.90
2007,08,05,03,25,13.90
2007,08,05,03,26,13.90
2007,08,05,03,27,13.90
2007,08,05,03,28,13.90
2007,08,05,03,29,13.80
2007,08,05,03,30,13.80
2007,08,05,03,31,13.80
2007,08,05,03,32,13.80
2007,08,05,03,33,13.80
2007,08,05,03,34,13.90
2007,08,05,03,35,13.90
2007,08,05,03,36,13.90
2007,08,05,03,37,13.90
2007,08,05,03,38,13.90
2007,08,05,03,39,13.90
2007,08,05,03,40,13.90
2007,08,05,03,41,13.90
2007,08,05,03,42,13.90
2007,08,05,03,43,13.90
2007,08,05,03,44,13.90
2007,08,05,03,45,13.90
2007,08,05,03,46,13.90
2007,08,05,03,47,13.90
2007,08,05,03,48,13.90
2007,08,05,03,49,13.90
2007,08,05,03,50,13.90
2007,08,05,03,51,13.90
2007,08,05,03,52,13.90
2007,08,05,03,53,13.90
2007,08,05,03,54,13.90
2007,08,05,03,55,13.90
2007,08,05,03,56,13.90
2007,08,05,03,57,13.90
2007,08,05,03,58,13.90
2007,08,05,03,59,13.90
2007,08,05,04,00,13.90
2007,08,05,04,01,13.90
2007,08,05,04,02,13.90
2007,08,05,04,03,13.90
2007,08,05,04,04,13.90
2007,08,05,04,05,13.90
2007,08,05,04,06,13.90
2007,08,05,04,07,13.80
2007,08,05,04,08,13.80
2007,08,05,04,09,13.80
2007,08,05,04,10,13.80
2007,08,05,04,11,13.70
2007,08,05,04,12,13.70
2007,08,05,04,13,13.70
2007,08,05,04,14,13.70
2007,08,05,04,15,13.70
2007,08,05,04,16,13.70
2007,08,05,04,17,13.70
2007,08,05,04,18,13.70
2007,08,05,04,19,13.70
2007,08,05,04,20,13.70
2007,08,05,04,21,13.70
2007,08,05,04,22,13.70
2007,08,05,04,23,13.70
2007,08,05,04,24,13.70
2007,08,05,04,25,13.70
2007,08,05,04,26,13.70
2007,08,05,04,27,13.70
2007,08,05,04,28,13.70
2007,08,05,04,29,13.70
2007,08,05,04,30,13.70
2007,08,05,04,31,13.70
2007,08,05,04,32,13.70
2007,08,05,04,33,13.70
2007,08,05,04,34,13.60
2007,08,05,04,35,13.60
2007,08,05,04,36,13.60
2007,08,05,04,37,13.60
2007,08,05,04,38,13.50
2007,08,05,04,39,13.50
2007,08,05,04,40,13.40
2007,08,05,04,41,13.40
2007,08,05,04,42,13.40
2007,08,05,04,43,13.40
2007,08,05,04,44,13.40
2007,08,05,04,45,13.30
2007,08,05,04,46,13.30
2007,08,05,04,47,13.30
2007,08,05,04,48,13.30
2007,08,05,04,49,13.30
2007,08,05,04,50,13.30
2007,08,05,04,51,13.30
2007,08,05,04,52,13.30
2007,08,05,04,53,13.30
2007,08,05,04,54,13.30
2007,08,05,04,55,13.30
2007,08,05,04,56,13.30
2007,08,05,04,57,13.30
2007,08,05,04,58,13.20
2007,08,05,04,59,13.20
2007,08,05,05,00,13.20
2007,08,05,05,01,13.20
2007,08,05,05,02,13.10
2007,08,05,05,03,13.10
2007,08,05,05,04,13.10
2007,08,05,05,05,13.00
2007,08,05,05,06,13.00
2007,08,05,05,07,13.00
2007,08,05,05,08,13.00
2007,08,05,05,09,12.90
2007,08,05,05,10,12.90
2007,08,05,05,11,12.90
2007,08,05,05,12,12.90
2007,08,05,05,13,12.90
2007,08,05,05,14,12.90
2007,08,05,05,15,12.90
2007,08,05,05,16,12.90
2007,08,05,05,17,12.90
2007,08,05,05,18,12.90
2007,08,05,05,19,12.90
2007,08,05,05,20,12.90
2007,08,05,05,21,12.90
2007,08,05,05,22,12.90
2007,08,05,05,23,12.90
2007,08,05,05,24,12.80
2007,08,05,05,25,12.80
2007,08,05,05,26,12.80
2007,08,05,05,27,12.80
2007,08,05,05,28,12.80
2007,08,05,05,29,12.80
2007,08,05,05,30,12.80
2007,08,05,05,31,12.80
2007,08,05,05,32,12.80
